Newport News, VA

7:56 AM EDT on August 19, 2017 (GMT -0400)
Newport News-Williamsburg International

Weather History for KPHF - July, 2013

Change the Weather History Date:

Tuesday, July 16, 2013

  Actual Average Record
Temperature  
Mean Temperature 88 °F -  
Max Temperature 96 °F 87 °F 99 °F (2005)
Min Temperature 78 °F 71 °F 57 °F (2001)
Cooling Degree Days 22    
Growing Degree Days 38 (Base 50)    
Moisture  
Dew Point 72 °F    
Average Humidity 66    
Maximum Humidity 79    
Minimum Humidity 47    
Precipitation  
Precipitation 0.04 in - - ()
Sea Level Pressure  
Sea Level Pressure 30.20 in    
Wind  
Wind Speed 5 mph (WNW)    
Max Wind Speed 9 mph    
Max Gust Speed -    
Visibility 10 miles    
Events Rain    
Averages and records for this station are not official NWS values.
T = Trace of Precipitation, MM = Missing Value Source: NWS Daily Summary

Daily Weather History Graph

Daily Weather History Graph

Search for Another Location

Airport or City:

Trip Planner

Search our weather history database for the weather conditions in past years. The results will help you decide how hot, cold, wet, or windy it might be!

Date:

Astronomy

Jul. 16, 2013 Rise Set
Actual Time 5:58 AM EDT 8:25 PM EDT
Civil Twilight 5:28 AM EDT 8:55 PM EDT
Nautical Twilight 4:51 AM EDT 9:31 PM EDT
Astronomical Twilight 4:10 AM EDT 10:12 PM EDT
Moon 2:07 PM EDT (7/16) 12:22 AM EDT (7/16)
Length of Visible Light 15h 26m
Length of Day
14h 26m
First Quarter, 56% of the Moon is Illuminated
Jul 16
First Quarter
Jul 22
Full
Jul 29
Last Quarter
Aug 6
New
Aug 14
First Quarter

Hourly Weather History & Observations

Time (EDT) Temp. Heat Index Dew Point Humidity Pressure Visibility Wind Dir Wind Speed Gust Speed Precip Events Conditions
12:54 AM 82.9 °F 86.5 °F 69.1 °F 63% 30.23 in 10.0 mi West 5.8 mph - N/A   Clear
1:54 AM 82.0 °F 85.5 °F 69.1 °F 65% 30.22 in 10.0 mi West 5.8 mph - N/A   Clear
2:54 AM 81.0 °F 84.4 °F 70.0 °F 69% 30.21 in 10.0 mi WSW 5.8 mph - N/A   Clear
3:54 AM 79.0 °F - 70.0 °F 74% 30.22 in 10.0 mi WSW 4.6 mph - N/A   Clear
5:54 AM 79.0 °F - 70.0 °F 74% 30.22 in 10.0 mi West 5.8 mph - N/A   Clear
6:54 AM 79.0 °F - 70.0 °F 74% 30.22 in 10.0 mi WSW 4.6 mph - N/A   Clear
7:54 AM 81.0 °F 84.9 °F 71.1 °F 72% 30.22 in 10.0 mi West 5.8 mph - N/A   Clear
8:54 AM 84.9 °F 90.7 °F 72.0 °F 65% 30.22 in 10.0 mi West 5.8 mph - N/A   Clear
9:54 AM 88.0 °F 95.6 °F 73.0 °F 61% 30.22 in 10.0 mi WNW 5.8 mph - N/A   Clear
11:54 AM 93.0 °F 104.6 °F 75.0 °F 56% 30.22 in 10.0 mi NNW 3.5 mph - N/A   Clear
12:54 PM 95.0 °F 105.2 °F 73.9 °F 50% 30.20 in 10.0 mi West 3.5 mph - N/A   Clear
1:54 PM 96.1 °F 105.6 °F 73.0 °F 47% 30.19 in 10.0 mi NW 6.9 mph - N/A   Scattered Clouds
2:54 PM 91.9 °F 103.9 °F 75.9 °F 59% 30.18 in 10.0 mi NNW 9.2 mph - 0.01 in   Mostly Cloudy
3:54 PM 91.9 °F 105.9 °F 77.0 °F 62% 30.17 in 10.0 mi North 4.6 mph - 0.00 in   Partly Cloudy
4:54 PM 87.1 °F 96.3 °F 75.0 °F 67% 30.16 in 8.0 mi Calm Calm - 0.03 in Rain Light Rain
5:54 PM 91.0 °F 107.6 °F 79.0 °F 68% 30.15 in 9.0 mi Calm Calm - 0.00 in   Partly Cloudy
6:54 PM 90.0 °F 96.9 °F 72.0 °F 55% 30.16 in 10.0 mi NNE 4.6 mph - N/A   Clear
7:54 PM 86.0 °F 92.2 °F 72.0 °F 63% 30.17 in 10.0 mi Calm Calm - N/A   Clear
8:36 PM 80.6 °F 84.6 °F 71.6 °F 74% 30.17 in 10.0 mi Calm Calm - N/A   Partly Cloudy
8:54 PM 79.0 °F - 72.0 °F 79% 30.18 in 10.0 mi NNE 4.6 mph - N/A   Partly Cloudy
9:54 PM 79.0 °F - 71.1 °F 77% 30.20 in 10.0 mi Calm Calm - N/A   Clear
10:54 PM 81.0 °F 84.9 °F 71.1 °F 72% 30.21 in 10.0 mi Calm Calm - N/A   Clear
11:54 PM 78.1 °F - 70.0 °F 76% 30.19 in 9.0 mi Calm Calm - N/A   Clear